Location: Newark
(41.0400°S, 62.7845°W)
Time: 14:49:55
(UTC+00:00)

Vanguard 2 Rocket - Pass Details

Date: 06 December 2021
Orbit: 553 x 3325 km, 32.9° (Epoch: 22 January)

Event Time Altitude Azimuth Distance (km) Brightness Sun altitude
Rises 08:13:26 0° 308° (NW) 7,266 - -3.8°
Exits shadow 08:15:16 - 309° (NW) 6,918 10.7 -3.5°
Reaches altitude 10° 08:18:34 10° 312° (NW) 6,282 10.5 -3.0°
Maximum altitude 08:37:17 50° 19° (NNE) 3,428 9.8 0.0°
Drops below altitude 10° 08:50:37 10° 89° (E) 4,625 11.7 2.1°
Sets 08:53:44 0° 94° (E) 5,303 12.2 2.7°
